Torna al catalogo

ARIANE 44LP DEB

AttivoHEO
NORAD 25539·DEBRIS·🇫🇷 France

Lanciato Dec 11, 1988 da Guiana Space Centre

Loading…

Prossimi Passaggi (prossime 24 ore)

TLE

AggiornatoSource: Space-Track

Epoca: Sep 14, 2026, 05:51 UTC

1 25539U 88109F   26257.24390677  .00002316  00000-0  57203-2 0  9991
2 25539   7.1079 271.5067 6810967 329.8717   4.2609  2.78798074263523

Traccia ARIANE 44LP DEB in tempo reale con AllMySat

Download on the App Store